Year,Month,Day,Hour,Minute,Value (Times are PST for temperature in C)
2010,06,22,09,07,13.50
2010,06,22,09,08,13.60
2010,06,22,09,09,13.70
2010,06,22,09,10,13.80
2010,06,22,09,11,13.90
2010,06,22,09,12,14.00
2010,06,22,09,13,14.10
2010,06,22,09,14,14.10
2010,06,22,09,15,14.20
2010,06,22,09,16,14.30
2010,06,22,09,17,14.30
2010,06,22,09,18,14.40
2010,06,22,09,19,14.40
2010,06,22,09,20,14.50
2010,06,22,09,21,14.60
2010,06,22,09,22,14.70
2010,06,22,09,23,14.80
2010,06,22,09,24,15.00
2010,06,22,09,25,15.00
2010,06,22,09,26,15.00
2010,06,22,09,27,15.00
2010,06,22,09,28,15.00
2010,06,22,09,29,15.00
2010,06,22,09,30,15.00
2010,06,22,09,31,15.00
2010,06,22,09,32,15.00
2010,06,22,09,33,15.00
2010,06,22,09,34,15.00
2010,06,22,09,35,15.00
2010,06,22,09,36,15.00
2010,06,22,09,37,15.00
2010,06,22,09,38,15.00
2010,06,22,09,39,15.00
2010,06,22,09,40,15.00
2010,06,22,09,41,15.10
2010,06,22,09,42,15.20
2010,06,22,09,43,15.30
2010,06,22,09,44,15.40
2010,06,22,09,45,15.40
2010,06,22,09,46,15.50
2010,06,22,09,47,15.60
2010,06,22,09,48,15.60
2010,06,22,09,49,15.60
2010,06,22,09,50,15.60
2010,06,22,09,51,15.60
2010,06,22,09,52,15.70
2010,06,22,09,53,15.70
2010,06,22,09,54,15.80
2010,06,22,09,55,15.80
2010,06,22,09,56,15.80
2010,06,22,09,57,15.70
2010,06,22,09,58,15.50
2010,06,22,09,59,15.50
2010,06,22,10,00,15.40
2010,06,22,10,01,15.40
2010,06,22,10,02,15.30
2010,06,22,10,03,15.30
2010,06,22,10,04,15.20
2010,06,22,10,05,15.10
2010,06,22,10,06,15.10
2010,06,22,10,07,15.00
2010,06,22,10,08,15.10
2010,06,22,10,09,15.20
2010,06,22,10,10,15.30
2010,06,22,10,11,15.40
2010,06,22,10,12,15.40
2010,06,22,10,13,15.40
2010,06,22,10,14,15.30
2010,06,22,10,15,15.10
2010,06,22,10,16,15.00
2010,06,22,10,17,15.00
2010,06,22,10,18,15.00
2010,06,22,10,19,15.00
2010,06,22,10,20,15.00
2010,06,22,10,21,15.00
2010,06,22,10,22,15.00
2010,06,22,10,23,15.20
2010,06,22,10,24,15.30
2010,06,22,10,25,15.50
2010,06,22,10,26,15.60
2010,06,22,10,27,15.60
2010,06,22,10,28,15.60
2010,06,22,10,29,15.70
2010,06,22,10,30,15.70
2010,06,22,10,31,15.70
2010,06,22,10,32,15.70
2010,06,22,10,33,15.70
2010,06,22,10,34,15.70
2010,06,22,10,35,15.80
2010,06,22,10,36,15.80
2010,06,22,10,37,15.90
2010,06,22,10,38,16.00
2010,06,22,10,39,16.10
2010,06,22,10,40,16.20
2010,06,22,10,41,16.30
2010,06,22,10,42,16.40
2010,06,22,10,43,16.40
2010,06,22,10,44,16.50
2010,06,22,10,45,16.60
2010,06,22,10,46,16.70
2010,06,22,10,47,16.70
2010,06,22,10,48,16.70
2010,06,22,10,49,16.70
2010,06,22,10,50,16.80
2010,06,22,10,51,16.80
2010,06,22,10,52,16.80
2010,06,22,10,53,16.80
2010,06,22,10,54,16.80
2010,06,22,10,55,16.80
2010,06,22,10,56,16.80
2010,06,22,10,57,16.80
2010,06,22,10,58,16.90
2010,06,22,10,59,16.90
2010,06,22,11,00,17.00
2010,06,22,11,01,17.10
2010,06,22,11,02,17.30
2010,06,22,11,03,17.40
2010,06,22,11,04,17.50
2010,06,22,11,05,17.60
2010,06,22,11,06,17.70
2010,06,22,11,07,17.70
2010,06,22,11,08,17.70
2010,06,22,11,09,17.70
2010,06,22,11,10,17.80
2010,06,22,11,11,17.80
2010,06,22,11,12,17.90
2010,06,22,11,13,17.90
2010,06,22,11,14,17.90
2010,06,22,11,15,17.90
2010,06,22,11,16,17.90
2010,06,22,11,17,17.90
2010,06,22,11,18,17.70
2010,06,22,11,19,17.60
2010,06,22,11,20,17.50
2010,06,22,11,21,17.40
2010,06,22,11,22,17.30
2010,06,22,11,23,17.30
2010,06,22,11,24,17.40
2010,06,22,11,25,17.40
2010,06,22,11,26,17.40
2010,06,22,11,27,17.30
2010,06,22,11,28,17.20
2010,06,22,11,29,17.10
2010,06,22,11,30,17.00
2010,06,22,11,31,17.00
2010,06,22,11,32,17.10
2010,06,22,11,33,17.00
2010,06,22,11,34,16.90
2010,06,22,11,35,17.00
2010,06,22,11,36,17.10
2010,06,22,11,37,17.20
2010,06,22,11,38,17.30
2010,06,22,11,39,17.40
2010,06,22,11,40,17.60
2010,06,22,11,41,17.60
2010,06,22,11,42,17.70
2010,06,22,11,43,17.80
2010,06,22,11,44,17.70
2010,06,22,11,45,17.70
2010,06,22,11,46,17.80
2010,06,22,11,47,17.80
2010,06,22,11,48,17.90
2010,06,22,11,49,17.90
2010,06,22,11,50,17.90
2010,06,22,11,51,17.90
2010,06,22,11,52,17.90
2010,06,22,11,53,17.90
2010,06,22,11,54,17.90
2010,06,22,11,55,17.90
2010,06,22,11,56,17.90
2010,06,22,11,57,17.80
2010,06,22,11,58,17.80
2010,06,22,11,59,17.70
2010,06,22,12,00,17.70
2010,06,22,12,01,17.70
2010,06,22,12,02,17.70
2010,06,22,12,03,17.80
2010,06,22,12,04,17.80
2010,06,22,12,05,17.90
2010,06,22,12,06,18.00
2010,06,22,12,07,18.10
2010,06,22,12,08,18.10
2010,06,22,12,09,18.20
2010,06,22,12,10,18.20
2010,06,22,12,11,18.20
2010,06,22,12,12,18.10
2010,06,22,12,13,18.10
2010,06,22,12,14,18.20
2010,06,22,12,15,18.30
2010,06,22,12,16,18.40
2010,06,22,12,17,18.40
2010,06,22,12,18,18.40
2010,06,22,12,19,18.40
2010,06,22,12,20,18.40
2010,06,22,12,21,18.40
2010,06,22,12,22,18.40
2010,06,22,12,23,18.40
2010,06,22,12,24,18.40
2010,06,22,12,25,18.30
2010,06,22,12,26,18.20
2010,06,22,12,27,18.20
2010,06,22,12,28,18.10
2010,06,22,12,29,18.10
2010,06,22,12,30,18.00
2010,06,22,12,31,17.90
2010,06,22,12,32,17.90
2010,06,22,12,33,17.80
2010,06,22,12,34,17.80
2010,06,22,12,35,17.80
2010,06,22,12,36,17.80
2010,06,22,12,37,17.70
2010,06,22,12,38,17.70
2010,06,22,12,39,17.70
2010,06,22,12,40,17.70
2010,06,22,12,41,17.80
2010,06,22,12,42,17.80
2010,06,22,12,43,17.80
2010,06,22,12,44,17.70
2010,06,22,12,45,17.70
2010,06,22,12,46,17.60
2010,06,22,12,47,17.70
2010,06,22,12,48,17.80
2010,06,22,12,49,17.80
2010,06,22,12,50,17.70
2010,06,22,12,51,17.70
2010,06,22,12,52,17.70
2010,06,22,12,53,17.80
2010,06,22,12,54,17.90
2010,06,22,12,55,18.00
2010,06,22,12,56,18.00
2010,06,22,12,57,18.10
2010,06,22,12,58,18.10
2010,06,22,12,59,18.20
2010,06,22,13,00,18.20
2010,06,22,13,01,18.30
2010,06,22,13,02,18.40
2010,06,22,13,03,18.40
2010,06,22,13,04,18.50
2010,06,22,13,05,18.60
2010,06,22,13,06,18.60
2010,06,22,13,07,18.50
2010,06,22,13,08,18.50
2010,06,22,13,09,18.40
2010,06,22,13,10,18.40
2010,06,22,13,11,18.40
2010,06,22,13,12,18.40
2010,06,22,13,13,18.40
2010,06,22,13,14,18.40
2010,06,22,13,15,18.40
2010,06,22,13,16,18.30
2010,06,22,13,17,18.30
2010,06,22,13,18,18.40
2010,06,22,13,19,18.40
2010,06,22,13,20,18.40
2010,06,22,13,21,18.50
2010,06,22,13,22,18.60
2010,06,22,13,23,18.60
2010,06,22,13,24,18.60
2010,06,22,13,25,18.50
2010,06,22,13,26,18.50
2010,06,22,13,27,18.40
2010,06,22,13,28,18.50
2010,06,22,13,29,18.50
2010,06,22,13,30,18.50
2010,06,22,13,31,18.40
2010,06,22,13,32,18.30
2010,06,22,13,33,18.20
2010,06,22,13,34,18.10
2010,06,22,13,35,18.10
2010,06,22,13,36,18.00
2010,06,22,13,37,18.00
2010,06,22,13,38,18.00
2010,06,22,13,39,18.00
2010,06,22,13,40,17.90
2010,06,22,13,41,17.90
2010,06,22,13,42,17.90
2010,06,22,13,43,17.90
2010,06,22,13,44,18.00
2010,06,22,13,45,18.00
2010,06,22,13,46,18.10
2010,06,22,13,47,18.10
2010,06,22,13,48,18.20
2010,06,22,13,49,18.20
2010,06,22,13,50,18.40
2010,06,22,13,51,18.50
2010,06,22,13,52,18.60
2010,06,22,13,53,18.70
2010,06,22,13,54,18.70
2010,06,22,13,55,18.70
2010,06,22,13,56,18.70
2010,06,22,13,57,18.60
2010,06,22,13,58,18.50
2010,06,22,13,59,18.30
2010,06,22,14,00,18.30
2010,06,22,14,01,18.20
2010,06,22,14,02,18.20
2010,06,22,14,03,18.20
2010,06,22,14,04,18.20
2010,06,22,14,05,18.30
2010,06,22,14,06,18.40
2010,06,22,14,07,18.50
2010,06,22,14,08,18.60
2010,06,22,14,09,18.70
2010,06,22,14,10,18.70
2010,06,22,14,11,18.70
2010,06,22,14,12,18.60
2010,06,22,14,13,18.60
2010,06,22,14,14,18.60
2010,06,22,14,15,18.60
2010,06,22,14,16,18.60
2010,06,22,14,17,18.60
2010,06,22,14,18,18.70
2010,06,22,14,19,18.70
2010,06,22,14,20,18.80
2010,06,22,14,21,18.80
2010,06,22,14,22,18.90
2010,06,22,14,23,18.90
2010,06,22,14,24,18.90
2010,06,22,14,25,18.80
2010,06,22,14,26,18.80
2010,06,22,14,27,18.80
2010,06,22,14,28,18.80
2010,06,22,14,29,18.70
2010,06,22,14,30,18.70
2010,06,22,14,31,18.70
2010,06,22,14,32,18.70
2010,06,22,14,33,18.80
2010,06,22,14,34,18.70
2010,06,22,14,35,18.70
2010,06,22,14,36,18.60
2010,06,22,14,37,18.60
2010,06,22,14,38,18.60
2010,06,22,14,39,18.60
2010,06,22,14,40,18.70
2010,06,22,14,41,18.90
2010,06,22,14,42,18.90
2010,06,22,14,43,18.90
2010,06,22,14,44,19.00
2010,06,22,14,45,19.20
2010,06,22,14,46,19.30
2010,06,22,14,47,19.40
2010,06,22,14,48,19.50
2010,06,22,14,49,19.60
2010,06,22,14,50,19.60
2010,06,22,14,51,19.70
2010,06,22,14,52,19.80
2010,06,22,14,53,19.80
2010,06,22,14,54,19.80
2010,06,22,14,55,19.90
2010,06,22,14,56,19.80
2010,06,22,14,57,19.80
2010,06,22,14,58,19.70
2010,06,22,14,59,19.60
2010,06,22,15,00,19.50
2010,06,22,15,01,19.40
2010,06,22,15,02,19.40
2010,06,22,15,03,19.20
2010,06,22,15,04,19.10
2010,06,22,15,05,19.10
2010,06,22,15,06,19.10
2010,06,22,15,07,19.10
2010,06,22,15,08,19.10
2010,06,22,15,09,19.20
2010,06,22,15,10,19.20
2010,06,22,15,11,19.30
2010,06,22,15,12,19.20
2010,06,22,15,13,19.20
2010,06,22,15,14,19.30
2010,06,22,15,15,19.30
2010,06,22,15,16,19.40
2010,06,22,15,17,19.40
2010,06,22,15,18,19.40
2010,06,22,15,19,19.30
2010,06,22,15,20,19.40
2010,06,22,15,21,19.40
2010,06,22,15,22,19.50
2010,06,22,15,23,19.50
2010,06,22,15,24,19.60
2010,06,22,15,25,19.60
2010,06,22,15,26,19.60
2010,06,22,15,27,19.60
2010,06,22,15,28,19.60
2010,06,22,15,29,19.60
2010,06,22,15,30,19.60
2010,06,22,15,31,19.60
2010,06,22,15,32,19.60
2010,06,22,15,33,19.70
2010,06,22,15,34,19.80
2010,06,22,15,35,19.80
2010,06,22,15,36,19.80
2010,06,22,15,37,19.70
2010,06,22,15,38,19.60
2010,06,22,15,39,19.50
2010,06,22,15,40,19.40
2010,06,22,15,41,19.30
2010,06,22,15,42,19.20
2010,06,22,15,43,19.20
2010,06,22,15,44,19.20
2010,06,22,15,45,19.20
2010,06,22,15,46,19.20
2010,06,22,15,47,19.20
2010,06,22,15,48,19.10
2010,06,22,15,49,19.10
2010,06,22,15,50,19.10
2010,06,22,15,51,19.10
2010,06,22,15,52,19.10
2010,06,22,15,53,19.20
2010,06,22,15,54,19.30
2010,06,22,15,55,19.40
2010,06,22,15,56,19.40
2010,06,22,15,57,19.30
2010,06,22,15,58,19.30
2010,06,22,15,59,19.20
2010,06,22,16,00,19.20
2010,06,22,16,01,19.20
2010,06,22,16,02,19.20
2010,06,22,16,03,19.10
2010,06,22,16,04,19.10
2010,06,22,16,05,19.10
2010,06,22,16,06,19.10
2010,06,22,16,07,19.20
2010,06,22,16,08,19.30
2010,06,22,16,09,19.40
2010,06,22,16,10,19.40
2010,06,22,16,11,19.40
2010,06,22,16,12,19.50
2010,06,22,16,13,19.50
2010,06,22,16,14,19.50
2010,06,22,16,15,19.40
2010,06,22,16,16,19.40
2010,06,22,16,17,19.40
2010,06,22,16,18,19.30
2010,06,22,16,19,19.30
2010,06,22,16,20,19.30
2010,06,22,16,21,19.30
2010,06,22,16,22,19.30
2010,06,22,16,23,19.30
2010,06,22,16,24,19.30
2010,06,22,16,25,19.40
2010,06,22,16,26,19.50
2010,06,22,16,27,19.50
2010,06,22,16,28,19.60
2010,06,22,16,29,19.60
2010,06,22,16,30,19.50
2010,06,22,16,31,19.50
2010,06,22,16,32,19.40
2010,06,22,16,33,19.40
2010,06,22,16,34,19.40
2010,06,22,16,35,19.30
2010,06,22,16,36,19.20
2010,06,22,16,37,19.10
2010,06,22,16,38,19.00
2010,06,22,16,39,18.90
2010,06,22,16,40,18.80
2010,06,22,16,41,18.80
2010,06,22,16,42,18.90
2010,06,22,16,43,19.00
2010,06,22,16,44,19.10
2010,06,22,16,45,19.20
2010,06,22,16,46,19.30
2010,06,22,16,47,19.30
2010,06,22,16,48,19.40
2010,06,22,16,49,19.40
2010,06,22,16,50,19.40
2010,06,22,16,51,19.40
2010,06,22,16,52,19.40
2010,06,22,16,53,19.50
2010,06,22,16,54,19.50
2010,06,22,16,55,19.60
2010,06,22,16,56,19.60
2010,06,22,16,57,19.60
2010,06,22,16,58,19.60
2010,06,22,16,59,19.70
2010,06,22,17,00,19.70
2010,06,22,17,01,19.70
2010,06,22,17,02,19.70
2010,06,22,17,03,19.70
2010,06,22,17,04,19.70
2010,06,22,17,05,19.80
2010,06,22,17,06,19.80
2010,06,22,17,07,19.80
2010,06,22,17,08,19.80
2010,06,22,17,09,19.80
2010,06,22,17,10,19.80
2010,06,22,17,11,19.90
2010,06,22,17,12,19.90
2010,06,22,17,13,20.00
2010,06,22,17,14,20.00
2010,06,22,17,15,20.00
2010,06,22,17,16,20.10
2010,06,22,17,17,20.10
2010,06,22,17,18,20.20
2010,06,22,17,19,20.20
2010,06,22,17,20,20.20
2010,06,22,17,21,20.30
2010,06,22,17,22,20.30
2010,06,22,17,23,20.30
2010,06,22,17,24,20.30
2010,06,22,17,25,20.40
2010,06,22,17,26,20.40
2010,06,22,17,27,20.50
2010,06,22,17,28,20.50
2010,06,22,17,29,20.60
2010,06,22,17,30,20.70
2010,06,22,17,31,20.70
2010,06,22,17,32,20.70
2010,06,22,17,33,20.70
2010,06,22,17,34,20.60
2010,06,22,17,35,20.60
2010,06,22,17,36,20.50
2010,06,22,17,37,20.40
2010,06,22,17,38,20.40
2010,06,22,17,39,20.30
2010,06,22,17,40,20.30
2010,06,22,17,41,20.30
2010,06,22,17,42,20.30
2010,06,22,17,43,20.30
2010,06,22,17,44,20.30
2010,06,22,17,45,20.40
2010,06,22,17,46,20.40
2010,06,22,17,47,20.40
2010,06,22,17,48,20.50
2010,06,22,17,49,20.50
2010,06,22,17,50,20.50
2010,06,22,17,51,20.40
2010,06,22,17,52,20.40
2010,06,22,17,53,20.40
2010,06,22,17,54,20.40
2010,06,22,17,55,20.40
2010,06,22,17,56,20.40
2010,06,22,17,57,20.30
2010,06,22,17,58,20.20
2010,06,22,17,59,20.10
2010,06,22,18,00,20.00
2010,06,22,18,01,19.90
2010,06,22,18,02,19.80
2010,06,22,18,03,19.70
2010,06,22,18,04,19.60
2010,06,22,18,05,19.60
2010,06,22,18,06,19.50
2010,06,22,18,07,19.50
2010,06,22,18,08,19.40
2010,06,22,18,09,19.40
2010,06,22,18,10,19.40
2010,06,22,18,11,19.40
2010,06,22,18,12,19.30
2010,06,22,18,13,19.30
2010,06,22,18,14,19.30
2010,06,22,18,15,19.20
2010,06,22,18,16,19.10
2010,06,22,18,17,19.00
2010,06,22,18,18,18.80
2010,06,22,18,19,18.70
2010,06,22,18,20,18.70
2010,06,22,18,21,18.60
2010,06,22,18,22,18.60
2010,06,22,18,23,18.60
2010,06,22,18,24,18.70
2010,06,22,18,25,18.70
2010,06,22,18,26,18.70
2010,06,22,18,27,18.70
2010,06,22,18,28,18.70
2010,06,22,18,29,18.70
2010,06,22,18,30,18.80
2010,06,22,18,31,18.80
2010,06,22,18,32,18.80
2010,06,22,18,33,18.80
2010,06,22,18,34,18.80
2010,06,22,18,35,18.80
2010,06,22,18,36,18.80
2010,06,22,18,37,18.80
2010,06,22,18,38,18.80
2010,06,22,18,39,18.80
2010,06,22,18,40,18.80
2010,06,22,18,41,18.80
2010,06,22,18,42,18.80
2010,06,22,18,43,18.80
2010,06,22,18,44,18.70
2010,06,22,18,45,18.70
2010,06,22,18,46,18.70
2010,06,22,18,47,18.70
2010,06,22,18,48,18.70
2010,06,22,18,49,18.70
2010,06,22,18,50,18.80
2010,06,22,18,51,18.80
2010,06,22,18,52,18.80
2010,06,22,18,53,18.90
2010,06,22,18,54,18.90
2010,06,22,18,55,18.90
2010,06,22,18,56,18.90
2010,06,22,18,57,19.00
2010,06,22,18,58,19.00
2010,06,22,18,59,18.90
2010,06,22,19,00,18.90
2010,06,22,19,01,18.80
2010,06,22,19,02,18.80
2010,06,22,19,03,18.80
2010,06,22,19,04,18.70
2010,06,22,19,05,18.70
2010,06,22,19,06,18.70
2010,06,22,19,07,18.70
2010,06,22,19,08,18.70
2010,06,22,19,09,18.80
2010,06,22,19,10,18.80
2010,06,22,19,11,18.80
2010,06,22,19,12,18.80
2010,06,22,19,13,18.90
2010,06,22,19,14,18.90
2010,06,22,19,15,18.90
2010,06,22,19,16,18.90
2010,06,22,19,17,18.80
2010,06,22,19,18,18.80
2010,06,22,19,19,18.80
2010,06,22,19,20,18.80
2010,06,22,19,21,18.90
2010,06,22,19,22,18.90
2010,06,22,19,23,18.90
2010,06,22,19,24,18.90
2010,06,22,19,25,18.90
2010,06,22,19,26,18.90
2010,06,22,19,27,18.90
2010,06,22,19,28,19.00
2010,06,22,19,29,19.00
2010,06,22,19,30,18.90
2010,06,22,19,31,18.90
2010,06,22,19,32,18.90
2010,06,22,19,33,18.90
2010,06,22,19,34,18.80
2010,06,22,19,35,18.80
2010,06,22,19,36,18.70
2010,06,22,19,37,18.70
2010,06,22,19,38,18.60
2010,06,22,19,39,18.60
2010,06,22,19,40,18.50
2010,06,22,19,41,18.50
2010,06,22,19,42,18.40
2010,06,22,19,43,18.40
2010,06,22,19,44,18.30
2010,06,22,19,45,18.20
2010,06,22,19,46,18.20
2010,06,22,19,47,18.10
2010,06,22,19,48,18.10
2010,06,22,19,49,18.00
2010,06,22,19,50,17.90
2010,06,22,19,51,17.80
2010,06,22,19,52,17.70
2010,06,22,19,53,17.70
2010,06,22,19,54,17.60
2010,06,22,19,55,17.60
2010,06,22,19,56,17.60
2010,06,22,19,57,17.60
2010,06,22,19,58,17.60
2010,06,22,19,59,17.60
2010,06,22,20,00,17.60
2010,06,22,20,01,17.60
2010,06,22,20,02,17.60
2010,06,22,20,03,17.60
2010,06,22,20,04,17.60
2010,06,22,20,05,17.60
2010,06,22,20,06,17.70
2010,06,22,20,07,17.70
2010,06,22,20,08,17.70
2010,06,22,20,09,17.70
2010,06,22,20,10,17.70
2010,06,22,20,11,17.70
2010,06,22,20,12,17.70
2010,06,22,20,13,17.70
2010,06,22,20,14,17.70
2010,06,22,20,15,17.70
2010,06,22,20,16,17.70
2010,06,22,20,17,17.60
2010,06,22,20,18,17.60
2010,06,22,20,19,17.50
2010,06,22,20,20,17.50
2010,06,22,20,21,17.40
2010,06,22,20,22,17.40
2010,06,22,20,23,17.40
2010,06,22,20,24,17.30
2010,06,22,20,25,17.30
2010,06,22,20,26,17.30
2010,06,22,20,27,17.30
2010,06,22,20,28,17.20
2010,06,22,20,29,17.20
2010,06,22,20,30,17.10
2010,06,22,20,31,17.00
2010,06,22,20,32,17.00
2010,06,22,20,33,16.90
2010,06,22,20,34,16.80
2010,06,22,20,35,16.80
2010,06,22,20,36,16.70
2010,06,22,20,37,16.70
2010,06,22,20,38,16.70
2010,06,22,20,39,16.70
2010,06,22,20,40,16.60
2010,06,22,20,41,16.60
2010,06,22,20,42,16.60
2010,06,22,20,43,16.60
2010,06,22,20,44,16.50
2010,06,22,20,45,16.50
2010,06,22,20,46,16.50
2010,06,22,20,47,16.40
2010,06,22,20,48,16.40
2010,06,22,20,49,16.40
2010,06,22,20,50,16.40
2010,06,22,20,51,16.40
2010,06,22,20,52,16.40
2010,06,22,20,53,16.40
2010,06,22,20,54,16.40
2010,06,22,20,55,16.40
2010,06,22,20,56,16.40
